Hourly Weather Golborne

Today, 15 May, Saturday

Time Temperature Precipitation Wind Pressure Humidity
00:00 +9°C° 0 mm 2 mps 750 mmHg 78%
01:00 +9°C° 0.1 mm 3 mps 750 mmHg 80%
02:00 +9°C° 0.1 mm 3 mps 749 mmHg 82%
03:00 +9°C° 0.1 mm 3 mps 749 mmHg 84%
04:00 +8°C° 0.5 mm 3 mps 748 mmHg 87%
05:00 +8°C° 0.5 mm 3 mps 748 mmHg 90%
06:00 +8°C° 0.5 mm 3 mps 748 mmHg 93%
07:00 +9°C° 0.4 mm 3 mps 748 mmHg 91%
08:00 +9°C° 0.4 mm 3 mps 747 mmHg 90%
09:00 +10°C° 0.4 mm 3 mps 747 mmHg 89%
10:00 +10°C° 0.5 mm 3 mps 747 mmHg 89%
11:00 +10°C° 0.5 mm 3 mps 747 mmHg 89%
12:00 +10°C° 0.5 mm 3 mps 746 mmHg 89%
13:00 +10°C° 0.4 mm 3 mps 746 mmHg 89%
14:00 +10°C° 0.4 mm 3 mps 746 mmHg 89%
15:00 +10°C° 0.4 mm 2 mps 746 mmHg 89%
16:00 +10°C° 0.1 mm 3 mps 746 mmHg 88%
17:00 +10°C° 0.1 mm 3 mps 745 mmHg 87%
18:00 +10°C° 0.1 mm 3 mps 745 mmHg 86%
19:00 +10°C° 0.1 mm 3 mps 745 mmHg 88%
20:00 +9°C° 0.1 mm 2 mps 745 mmHg 91%
21:00 +8°C° 0.1 mm 2 mps 745 mmHg 93%
22:00 +8°C° 0 mm 2 mps 745 mmHg 93%
23:00 +8°C° 0 mm 2 mps 745 mmHg 93%

Tomorrow, 16 May, Sunday

Time Temperature Precipitation Wind Pressure Humidity
00:00 +7°C° 0 mm 2 mps 745 mmHg 94%
01:00 +7°C° 0 mm 2 mps 745 mmHg 94%
02:00 +7°C° 0 mm 2 mps 745 mmHg 95%
03:00 +6°C° 0 mm 2 mps 745 mmHg 95%
04:00 +7°C° 0 mm 2 mps 745 mmHg 94%
05:00 +7°C° 0 mm 2 mps 745 mmHg 92%
06:00 +7°C° 0 mm 2 mps 745 mmHg 91%
07:00 +9°C° 0 mm 2 mps 745 mmHg 84%
08:00 +10°C° 0 mm 2 mps 745 mmHg 78%
09:00 +13°C° 0 mm 2 mps 745 mmHg 72%
10:00 +13°C° 0.4 mm 2 mps 745 mmHg 70%
11:00 +14°C° 0.4 mm 2 mps 745 mmHg 69%
12:00 +14°C° 0.4 mm 2 mps 745 mmHg 68%
13:00 +14°C° 0.5 mm 2 mps 745 mmHg 69%
14:00 +14°C° 0.5 mm 1 mps 744 mmHg 70%
15:00 +14°C° 0.5 mm 1 mps 744 mmHg 72%
16:00 +14°C° 0.6 mm 2 mps 745 mmHg 76%
17:00 +13°C° 0.6 mm 2 mps 745 mmHg 80%
18:00 +13°C° 0.6 mm 2 mps 745 mmHg 84%
19:00 +12°C° 0.4 mm 2 mps 745 mmHg 87%
20:00 +10°C° 0.4 mm 2 mps 746 mmHg 90%
21:00 +8°C° 0.4 mm 2 mps 746 mmHg 93%
22:00 +8°C° 0.2 mm 2 mps 746 mmHg 94%
23:00 +9°C° 0.2 mm 1 mps 746 mmHg 94%

Day after tomorrow, 17 May, Monday

Time Temperature Precipitation Wind Pressure Humidity
00:00 +9°C° 0.2 mm 1 mps 747 mmHg 95%
01:00 +9°C° 0.1 mm 1 mps 747 mmHg 95%
02:00 +8°C° 0.1 mm 1 mps 747 mmHg 95%
03:00 +8°C° 0.1 mm 1 mps 748 mmHg 95%
04:00 +9°C° 0 mm 1 mps 748 mmHg 94%
05:00 +9°C° 0 mm 1 mps 748 mmHg 94%
06:00 +10°C° 0 mm 1 mps 749 mmHg 93%
07:00 +10°C° 0.1 mm 1 mps 749 mmHg 90%
08:00 +10°C° 0.1 mm 2 mps 749 mmHg 88%
09:00 +12°C° 0.1 mm 2 mps 750 mmHg 86%
10:00 +11°C° 0.4 mm 3 mps 750 mmHg 83%
11:00 +12°C° 0.4 mm 4 mps 750 mmHg 79%
12:00 +12°C° 0.4 mm 5 mps 750 mmHg 75%
13:00 +12°C° 0.1 mm 5 mps 751 mmHg 70%
14:00 +11°C° 0.1 mm 6 mps 751 mmHg 65%
15:00 +13°C° 0.1 mm 6 mps 751 mmHg 60%
16:00 +11°C° 0 mm 6 mps 751 mmHg 63%
17:00 +12°C° 0 mm 5 mps 752 mmHg 66%
18:00 +10°C° 0 mm 5 mps 752 mmHg 69%
19:00 +10°C° 0 mm 4 mps 752 mmHg 73%
20:00 +9°C° 0 mm 3 mps 753 mmHg 77%
21:00 +8°C° 0 mm 2 mps 753 mmHg 81%
22:00 +8°C° 0 mm 2 mps 753 mmHg 81%
23:00 +8°C° 0 mm 2 mps 753 mmHg 82%

18 May, Tuesday

Time Temperature Precipitation Wind Pressure Humidity
00:00 +8°C° 0 mm 3 mps 753 mmHg 83%
01:00 +8°C° 0 mm 3 mps 754 mmHg 84%
02:00 +8°C° 0 mm 3 mps 754 mmHg 85%
03:00 +7°C° 0 mm 2 mps 754 mmHg 85%
04:00 +8°C° 0 mm 3 mps 754 mmHg 85%
05:00 +8°C° 0 mm 3 mps 755 mmHg 85%
06:00 +7°C° 0 mm 4 mps 755 mmHg 84%
07:00 +8°C° 0.1 mm 4 mps 755 mmHg 78%
08:00 +9°C° 0.1 mm 5 mps 755 mmHg 71%
09:00 +10°C° 0.1 mm 5 mps 756 mmHg 65%
10:00 +11°C° 0.1 mm 6 mps 756 mmHg 63%
11:00 +11°C° 0.1 mm 6 mps 756 mmHg 61%
12:00 +13°C° 0.1 mm 6 mps 756 mmHg 58%
13:00 +13°C° 0.1 mm 6 mps 756 mmHg 59%
14:00 +13°C° 0.1 mm 6 mps 756 mmHg 59%
15:00 +13°C° 0.1 mm 6 mps 756 mmHg 59%
16:00 +12°C° 0.3 mm 5 mps 756 mmHg 65%
17:00 +12°C° 0.3 mm 5 mps 756 mmHg 72%
18:00 +10°C° 0.3 mm 5 mps 756 mmHg 78%
19:00 +10°C° 0.1 mm 4 mps 757 mmHg 81%
20:00 +9°C° 0.1 mm 3 mps 757 mmHg 84%
21:00 +8°C° 0.1 mm 3 mps 757 mmHg 87%
22:00 +7°C° 0 mm 3 mps 757 mmHg 88%
23:00 +7°C° 0 mm 3 mps 757 mmHg 89%

19 May, Wednesday

Time Temperature Precipitation Wind Pressure Humidity
00:00 +7°C° 0 mm 2 mps 757 mmHg 90%
01:00 +7°C° 0.1 mm 2 mps 757 mmHg 91%
02:00 +7°C° 0.1 mm 2 mps 757 mmHg 92%
03:00 +8°C° 0.1 mm 2 mps 757 mmHg 93%
04:00 +8°C° 0.1 mm 3 mps 757 mmHg 93%
05:00 +8°C° 0.1 mm 3 mps 757 mmHg 93%
06:00 +9°C° 0.1 mm 3 mps 758 mmHg 93%
07:00 +8°C° 0.1 mm 4 mps 758 mmHg 89%
08:00 +10°C° 0.1 mm 4 mps 758 mmHg 86%
09:00 +10°C° 0.1 mm 5 mps 759 mmHg 82%
10:00 +10°C° 0.1 mm 5 mps 759 mmHg 79%
11:00 +12°C° 0.1 mm 5 mps 759 mmHg 75%
12:00 +12°C° 0.1 mm 5 mps 759 mmHg 72%
13:00 +12°C° 0 mm 5 mps 759 mmHg 69%
14:00 +13°C° 0 mm 5 mps 759 mmHg 66%
15:00 +13°C° 0 mm 5 mps 760 mmHg 63%
16:00 +13°C° 0 mm 4 mps 759 mmHg 65%
17:00 +13°C° 0 mm 3 mps 759 mmHg 66%
18:00 +13°C° 0 mm 3 mps 759 mmHg 68%
19:00 +12°C° 0 mm 2 mps 759 mmHg 74%
20:00 +11°C° 0 mm 1 mps 759 mmHg 79%
21:00 +9°C° 0 mm 0 mps 759 mmHg 84%
22:00 +10°C° 0 mm 1 mps 758 mmHg 84%
23:00 +10°C° 0 mm 1 mps 758 mmHg 85%

20 May, Thursday

Time Temperature Precipitation Wind Pressure Humidity
00:00 +9°C° 0 mm 2 mps 758 mmHg 85%
01:00 +8°C° 0 mm 2 mps 757 mmHg 85%
02:00 +8°C° 0 mm 2 mps 756 mmHg 85%
03:00 +8°C° 0 mm 3 mps 756 mmHg 85%
04:00 +8°C° 0.1 mm 3 mps 755 mmHg 86%
05:00 +7°C° 0.1 mm 4 mps 754 mmHg 87%
06:00 +7°C° 0.1 mm 5 mps 753 mmHg 88%
07:00 +7°C° 0.2 mm 5 mps 752 mmHg 89%
08:00 +7°C° 0.2 mm 6 mps 751 mmHg 91%
09:00 +7°C° 0.2 mm 6 mps 750 mmHg 92%
10:00 +7°C° 0.1 mm 6 mps 749 mmHg 92%
11:00 +8°C° 0.1 mm 6 mps 748 mmHg 92%
12:00 +8°C° 0.1 mm 6 mps 747 mmHg 91%
13:00 +8°C° 0.2 mm 6 mps 746 mmHg 92%
14:00 +8°C° 0.2 mm 6 mps 746 mmHg 92%
15:00 +8°C° 0.2 mm 6 mps 745 mmHg 93%
16:00 +8°C° 0.2 mm 5 mps 745 mmHg 93%
17:00 +8°C° 0.2 mm 5 mps 746 mmHg 94%
18:00 +8°C° 0.2 mm 5 mps 746 mmHg 94%
19:00 +8°C° 0.2 mm 4 mps 747 mmHg 94%
20:00 +8°C° 0.2 mm 4 mps 748 mmHg 94%
21:00 +8°C° 0.2 mm 3 mps 749 mmHg 94%
22:00 +8°C° 0.1 mm 3 mps 750 mmHg 94%
23:00 +8°C° 0.1 mm 2 mps 750 mmHg 94%
Show more